Location: Beadle
(51.4667°N, 109.0000°W)
Time: 05:10:10
(UTC+00:00)

Altair - Pass Details

Date: 01 June 2022
Orbit: 1501 x 1682 km, 47.2° (Epoch: 30 June)

Event Time Altitude Azimuth Distance (km) Brightness Sun altitude
Rises 00:40:08 0° 260° (W) 4,851 11.4 22.2°
Reaches altitude 10° 00:43:15 10° 258° (WSW) 3,885 11.1 21.7°
Maximum altitude 00:53:10 71° 178° (S) 1,756 8.1 20.2°
Drops below altitude 10° 01:03:15 10° 97° (E) 3,946 9.1 18.7°
Sets 01:06:26 0° 96° (E) 4,930 9.5 18.2°
